• în România
  • Lista ţărilor
  • Pe 7 zile
  • Temperatura apei
  • Hartă satelitară
  • Meteo pe hartă
  • Widget-uri
  • user-avatar
    Intrare

    Meteo pe oră la Prutz

    Astăzi, 16 Iulie, Luni

    Timp Temperatura Precipitaţii Vânt Presiune Umiditate
    00:00 +11°C° 0,1 mm 1 m/s 634 mmHg 85%
    01:00 +10°C° 0 mm 1 m/s 634 mmHg 85%
    02:00 +10°C° 0 mm 1 m/s 634 mmHg 85%
    03:00 +10°C° 0 mm 1 m/s 634 mmHg 84%
    04:00 +9°C° 0 mm 1 m/s 634 mmHg 83%
    05:00 +11°C° 0 mm 1 m/s 634 mmHg 79%
    06:00 +13°C° 0 mm 1 m/s 635 mmHg 75%
    07:00 +14°C° 0 mm 1 m/s 635 mmHg 70%
    08:00 +16°C° 0,1 mm 1 m/s 635 mmHg 63%
    09:00 +18°C° 0,1 mm 1 m/s 636 mmHg 56%
    10:00 +20°C° 0,1 mm 1 m/s 636 mmHg 50%
    11:00 +21°C° 0,4 mm 1 m/s 636 mmHg 47%
    12:00 +20°C° 0,4 mm 2 m/s 636 mmHg 45%
    13:00 +21°C° 0,4 mm 2 m/s 635 mmHg 43%
    14:00 +20°C° 0,5 mm 2 m/s 635 mmHg 45%
    15:00 +20°C° 0,5 mm 2 m/s 635 mmHg 48%
    16:00 +19°C° 0,5 mm 2 m/s 634 mmHg 50%
    17:00 +18°C° 0,2 mm 2 m/s 634 mmHg 57%
    18:00 +17°C° 0,2 mm 2 m/s 634 mmHg 64%
    19:00 +16°C° 0,2 mm 2 m/s 634 mmHg 71%
    20:00 +14°C° 0,1 mm 2 m/s 633 mmHg 78%
    21:00 +13°C° 0,1 mm 2 m/s 633 mmHg 84%
    22:00 +11°C° 0,1 mm 1 m/s 633 mmHg 91%
    23:00 +11°C° 0 mm 1 m/s 633 mmHg 91%

    Mâine, 17 Iulie, Marţi

    Timp Temperatura Precipitaţii Vânt Presiune Umiditate
    00:00 +9°C° 0 mm 2 m/s 633 mmHg 92%
    01:00 +9°C° 0 mm 2 m/s 633 mmHg 93%
    02:00 +9°C° 0 mm 2 m/s 633 mmHg 93%
    03:00 +8°C° 0 mm 2 m/s 633 mmHg 93%
    04:00 +8°C° 0 mm 2 m/s 633 mmHg 93%
    05:00 +9°C° 0 mm 2 m/s 633 mmHg 89%
    06:00 +12°C° 0 mm 2 m/s 634 mmHg 85%
    07:00 +13°C° 0 mm 2 m/s 635 mmHg 81%
    08:00 +15°C° 0,1 mm 2 m/s 635 mmHg 71%
    09:00 +16°C° 0,1 mm 2 m/s 636 mmHg 62%
    10:00 +18°C° 0,1 mm 2 m/s 636 mmHg 53%
    11:00 +19°C° 0 mm 2 m/s 636 mmHg 50%
    12:00 +20°C° 0 mm 2 m/s 637 mmHg 48%
    13:00 +20°C° 0 mm 3 m/s 637 mmHg 45%
    14:00 +20°C° 0,4 mm 3 m/s 636 mmHg 50%
    15:00 +19°C° 0,4 mm 3 m/s 636 mmHg 55%
    16:00 +19°C° 0,4 mm 3 m/s 636 mmHg 59%
    17:00 +18°C° 0,4 mm 2 m/s 636 mmHg 66%
    18:00 +17°C° 0,4 mm 2 m/s 636 mmHg 72%
    19:00 +16°C° 0,4 mm 2 m/s 636 mmHg 78%
    20:00 +14°C° 0,1 mm 2 m/s 635 mmHg 82%
    21:00 +13°C° 0,1 mm 1 m/s 635 mmHg 87%
    22:00 +11°C° 0,1 mm 1 m/s 635 mmHg 92%
    23:00 +10°C° 0 mm 1 m/s 635 mmHg 92%

    Poimâine, 18 Iulie, Miercuri

    Timp Temperatura Precipitaţii Vânt Presiune Umiditate
    00:00 +10°C° 0 mm 1 m/s 635 mmHg 92%
    01:00 +10°C° 0 mm 1 m/s 635 mmHg 92%
    02:00 +9°C° 0 mm 1 m/s 635 mmHg 91%
    03:00 +9°C° 0 mm 1 m/s 634 mmHg 90%
    04:00 +9°C° 0 mm 1 m/s 634 mmHg 89%
    05:00 +10°C° 0 mm 1 m/s 635 mmHg 84%
    06:00 +12°C° 0 mm 1 m/s 636 mmHg 79%
    07:00 +14°C° 0 mm 1 m/s 636 mmHg 74%
    08:00 +16°C° 0 mm 1 m/s 637 mmHg 66%
    09:00 +19°C° 0 mm 1 m/s 637 mmHg 57%
    10:00 +21°C° 0 mm 1 m/s 638 mmHg 49%
    11:00 +21°C° 0 mm 2 m/s 638 mmHg 46%
    12:00 +23°C° 0 mm 2 m/s 638 mmHg 43%
    13:00 +23°C° 0 mm 2 m/s 638 mmHg 41%
    14:00 +23°C° 0 mm 2 m/s 638 mmHg 43%
    15:00 +23°C° 0 mm 2 m/s 637 mmHg 46%
    16:00 +21°C° 0 mm 3 m/s 637 mmHg 48%
    17:00 +20°C° 0,2 mm 2 m/s 637 mmHg 58%
    18:00 +19°C° 0,2 mm 2 m/s 636 mmHg 68%
    19:00 +17°C° 0,2 mm 2 m/s 636 mmHg 77%
    20:00 +16°C° 0,1 mm 2 m/s 636 mmHg 83%
    21:00 +14°C° 0,1 mm 1 m/s 636 mmHg 89%
    22:00 +13°C° 0,1 mm 1 m/s 636 mmHg 94%
    23:00 +13°C° 0,1 mm 1 m/s 636 mmHg 94%

    19 Iulie, Joi

    Timp Temperatura Precipitaţii Vânt Presiune Umiditate
    00:00 +12°C° 0,1 mm 1 m/s 636 mmHg 95%
    01:00 +12°C° 0,1 mm 1 m/s 635 mmHg 95%
    02:00 +11°C° 0 mm 1 m/s 635 mmHg 95%
    03:00 +11°C° 0 mm 1 m/s 635 mmHg 95%
    04:00 +10°C° 0 mm 1 m/s 634 mmHg 94%
    05:00 +12°C° 0 mm 1 m/s 635 mmHg 88%
    06:00 +13°C° 0 mm 1 m/s 635 mmHg 81%
    07:00 +15°C° 0 mm 1 m/s 636 mmHg 74%
    08:00 +18°C° 0 mm 1 m/s 637 mmHg 65%
    09:00 +19°C° 0 mm 1 m/s 637 mmHg 57%
    10:00 +21°C° 0 mm 1 m/s 638 mmHg 48%
    11:00 +21°C° 0 mm 2 m/s 638 mmHg 45%
    12:00 +23°C° 0 mm 2 m/s 638 mmHg 43%
    13:00 +24°C° 0 mm 2 m/s 638 mmHg 40%
    14:00 +24°C° 0,2 mm 2 m/s 638 mmHg 42%
    15:00 +24°C° 0,2 mm 2 m/s 637 mmHg 44%
    16:00 +23°C° 0,2 mm 2 m/s 637 mmHg 46%
    17:00 +21°C° 0,4 mm 2 m/s 637 mmHg 55%
    18:00 +19°C° 0,4 mm 2 m/s 636 mmHg 64%
    19:00 +18°C° 0,4 mm 2 m/s 636 mmHg 73%
    20:00 +16°C° 0,2 mm 1 m/s 635 mmHg 78%
    21:00 +15°C° 0,2 mm 1 m/s 635 mmHg 84%
    22:00 +13°C° 0,2 mm 1 m/s 635 mmHg 89%
    23:00 +13°C° 0 mm 1 m/s 635 mmHg 88%

    20 Iulie, Vineri

    Timp Temperatura Precipitaţii Vânt Presiune Umiditate
    00:00 +12°C° 0 mm 1 m/s 634 mmHg 87%
    01:00 +12°C° 0 mm 1 m/s 634 mmHg 87%
    02:00 +12°C° 0 mm 1 m/s 634 mmHg 86%
    03:00 +12°C° 0 mm 1 m/s 634 mmHg 85%
    04:00 +12°C° 0 mm 1 m/s 633 mmHg 83%
    05:00 +13°C° 0 mm 1 m/s 634 mmHg 78%
    06:00 +15°C° 0 mm 1 m/s 634 mmHg 73%
    07:00 +18°C° 0 mm 1 m/s 635 mmHg 68%
    08:00 +19°C° 0,1 mm 1 m/s 635 mmHg 63%
    09:00 +21°C° 0,1 mm 1 m/s 636 mmHg 57%
    10:00 +22°C° 0,1 mm 1 m/s 636 mmHg 51%
    11:00 +21°C° 1 mm 1 m/s 635 mmHg 58%
    12:00 +21°C° 1 mm 1 m/s 635 mmHg 65%
    13:00 +20°C° 1 mm 1 m/s 634 mmHg 71%
    14:00 +19°C° 2 mm 1 m/s 634 mmHg 76%
    15:00 +19°C° 2 mm 1 m/s 634 mmHg 80%
    16:00 +18°C° 2 mm 1 m/s 634 mmHg 85%
    17:00 +16°C° 1,7 mm 1 m/s 633 mmHg 88%
    18:00 +15°C° 1,7 mm 1 m/s 633 mmHg 91%
    19:00 +14°C° 1,7 mm 0 m/s 633 mmHg 94%
    20:00 +14°C° 1,6 mm 1 m/s 633 mmHg 94%
    21:00 +14°C° 1,6 mm 1 m/s 633 mmHg 95%
    22:00 +13°C° 1,6 mm 1 m/s 633 mmHg 95%
    23:00 +13°C° 0,8 mm 1 m/s 632 mmHg 95%

    21 Iulie, Sâmbătă

    Timp Temperatura Precipitaţii Vânt Presiune Umiditate
    00:00 +13°C° 0,8 mm 1 m/s 632 mmHg 95%
    01:00 +12°C° 0,8 mm 1 m/s 632 mmHg 94%
    02:00 +12°C° 0,7 mm 1 m/s 632 mmHg 94%
    03:00 +12°C° 0,7 mm 1 m/s 632 mmHg 95%
    04:00 +12°C° 0,7 mm 1 m/s 632 mmHg 95%
    05:00 +12°C° 1 mm 1 m/s 632 mmHg 94%
    06:00 +12°C° 1 mm 1 m/s 632 mmHg 94%
    07:00 +13°C° 1 mm 1 m/s 632 mmHg 93%
    08:00 +13°C° 1,1 mm 1 m/s 632 mmHg 92%
    09:00 +13°C° 1,1 mm 2 m/s 632 mmHg 90%
    10:00 +14°C° 1,1 mm 2 m/s 632 mmHg 89%
    11:00 +14°C° 1 mm 2 m/s 633 mmHg 88%
    12:00 +15°C° 1 mm 2 m/s 633 mmHg 87%
    13:00 +15°C° 1 mm 2 m/s 633 mmHg 86%
    14:00 +15°C° 1,1 mm 2 m/s 633 mmHg 88%
    15:00 +14°C° 1,1 mm 2 m/s 633 mmHg 89%
    16:00 +14°C° 1,1 mm 2 m/s 633 mmHg 90%
    17:00 +13°C° 1 mm 2 m/s 633 mmHg 92%
    18:00 +13°C° 1 mm 2 m/s 633 mmHg 93%
    19:00 +12°C° 1 mm 2 m/s 633 mmHg 95%
    20:00 +12°C° 0,8 mm 2 m/s 633 mmHg 96%
    21:00 +12°C° 0,8 mm 2 m/s 633 mmHg 96%
    22:00 +10°C° 0,8 mm 2 m/s 633 mmHg 97%
    23:00 +10°C° 0,7 mm 2 m/s 633 mmHg 97%
    Arată mai mult